[[{"header":{"parameterUnit":"m.s-1","parameterCategory":1,"la1":30.2991,"la2":30.254,"lo1":-89.0895,"lo2":-89.0444,"dy":0.0017,"dx":0.0017,"nx":28,"ny":28,"refTime":"2024-06-22T03:00:00:Z","depth":0,"parameterNumber":2,"parameterNumberName":"U-component_of_WINDS"},"data":[0,0,0,0,0,0,0,0,0,0,0,0,0,0,0,0,0,0,0,0,0,0,0,0,0,0,0,0,0,0,0,0,0,0,0,0,0,0,0,0,0,0,0,0,0,0,0,0,0,0,0,0,0,0,0,0,0,0,-2.9937,-2.9937,0,-2.9878,-2.9877,-2.9876,-2.9814,-2.9813,-2.9812,-2.9811,-2.9749,-2.9749,-2.9748,0,0,0,0,0,0,0,0,0,0,0,0,0,-2.9999,-2.9998,-2.9937,-2.9937,-2.9936,-2.9878,-2.9877,-2.9876,-2.9814,-2.9813,-2.9812,-2.9811,-2.975,-2.9749,-2.9748,0,0,0,0,0,0,0,0,0,0,0,0,0,-2.9959,-2.9998,-2.9937,-2.9898,-2.9894,-2.9878,-2.9877,-2.9876,-2.9814,-2.9813,-2.9811,-2.981,-2.975,-2.9749,-2.9748,-2.9766,0,0,-2.9744,-2.9743,0,0,0,0,0,0,0,0,-2.9961,-2.9957,-2.9904,-2.99,-2.9896,-2.9852,-2.9876,-2.9839,-2.9814,-2.9844,-2.9811,-2.9809,-2.9784,-2.978,-2.9772,-2.9763,-2.9761,-2.9744,-2.9743,-2.9742,-2.9742,0,0,0,0,0,0,0,-2.9964,-2.9959,-2.9914,-2.9904,-2.9898,-2.9883,-2.9876,-2.9869,-2.9822,-2.9841,-2.9837,-2.9831,-2.9782,-2.9773,-2.977,-2.976,-2.9744,-2.9743,-2.9742,-2.9741,-2.9766,-2.9767,0,0,0,0,0,0,-2.9973,-2.9962,-2.9916,-2.9912,-2.9926,-2.9883,-2.9875,-2.9867,-2.9822,-2.9814,-2.9832,-2.9828,-2.9776,-2.9772,-2.9768,-2.9787,-2.9742,-2.9741,-2.9741,-2.9764,-2.9766,-2.9768,0,0,0,0,0,0,-2.9974,-2.9969,-2.9918,-2.9935,-2.9928,-2.9884,-2.9875,-2.9867,-2.9858,-2.9815,-2.9806,-2.9831,-2.9775,-2.9769,-2.9767,-2.9784,-2.9741,-2.974,-2.9763,-2.9765,-2.9767,-2.9826,0,0,0,0,0,0,-2.9976,-2.997,-2.9976,-2.9936,-2.9927,-2.9918,-2.9876,-2.9866,-2.9856,-2.985,-2.9812,-2.9805,-2.9773,-2.977,-2.9766,-2.9781,-2.9739,-2.9761,-2.9764,-2.9766,-2.9822,-2.9829,-2.9836,0,0,0,0,0,-2.9979,-2.9994,-2.9977,-2.9971,-2.9934,-2.9919,-2.9914,-2.9878,-2.9858,-2.9864,-2.9837,-2.9806,-2.9784,-2.977,-2.9766,-2.9781,-2.976,-2.9763,-2.9766,-2.9819,-2.9828,-2.9836,0,0,0,0,0,0,-3.0036,-2.9988,-2.9968,-2.9971,-2.995,-2.9909,-2.9915,-2.9889,-2.9872,-2.9867,-2.9823,-2.9815,-2.9819,-2.98,-2.9786,-2.9798,-2.9767,-2.977,-2.9809,-2.9817,-2.9824,-2.9828,-2.9738,0,0,0,0,0,-3.005,-3.0042,-3.0001,-3.0007,-2.9998,-2.9959,-2.9951,-2.9926,-2.9901,-2.9892,-2.9864,-2.9843,-2.9831,-2.9823,-2.981,-2.982,-2.9811,-2.9829,-2.9836,-2.9842,-2.9843,-2.9849,-2.9856,-2.9778,-2.9778,-2.9778,0,0,-3.0076,-3.0049,-3.0047,-3.0018,-2.9999,-2.9992,-2.9951,-2.9945,-2.994,-2.9891,-2.9887,-2.9867,-2.984,-2.9845,-2.9845,-2.9829,-2.9864,-2.9846,-2.9851,-2.9849,-2.9853,-2.986,-2.9867,-2.978,-2.9779,-2.9779,0,0,-3.0121,-3.01,-3.0104,-3.0086,-3.0058,-3.0032,-3.0034,-2.9997,-2.9982,-2.9978,-2.9941,-2.9936,-2.9916,-2.9898,-2.9887,-2.993,-2.9901,-2.9927,-2.9962,-2.9968,-2.9974,-2.9979,-2.9994,-3.0,-2.993,-2.993,-2.993,0,-3.0157,-3.0146,-3.0109,-3.0106,-3.0095,-3.0053,-3.0057,-3.0041,-3.001,-3.0003,-2.9986,-2.9962,-2.9941,-2.9941,-2.9952,-2.9945,-2.9945,-2.9929,-2.9976,-2.9981,-2.9985,-2.9999,-3.0005,-2.9933,-2.9933,-2.9932,-2.9932,0,-3.0192,-3.0185,-3.0192,-3.0164,-3.0154,-3.0155,-3.0119,-3.0114,-3.0091,-3.0067,-3.0065,-3.0039,-3.002,-3.0019,-2.9995,-3.0017,-3.0008,-2.9984,-2.9952,-2.9997,-3.0009,-3.0014,-2.9938,-2.9936,-2.9936,-2.9935,0,0,-3.0267,-3.0222,-3.0225,-3.0212,-3.018,-3.0174,-3.0174,-3.0157,-3.0153,-3.0135,-3.0133,-3.012,-3.0099,-3.0086,-3.0061,-3.0066,-3.0102,-3.0042,-3.004,-3.0053,-3.0125,-3.0142,-3.0148,-3.0085,-3.0086,-3.0086,-3.0127,0,-3.0305,-3.0302,-3.0271,-3.0277,-3.027,-3.0232,-3.0232,-3.0213,-3.0192,-3.0184,-3.0162,-3.0153,-3.0126,-3.0118,-3.0122,-3.0097,-3.0116,-3.0094,-3.0083,-3.0083,-3.0089,-3.0155,-3.0171,-3.0211,-3.0132,-3.0132,-3.0133,0,-3.0348,-3.0333,-3.0339,-3.0308,-3.0305,-3.0305,-3.0288,-3.0281,-3.0259,-3.0244,-3.0232,-3.0205,-3.0204,-3.0177,-3.0175,-3.0161,-3.0155,-3.0143,-3.0144,-3.014,-3.0109,-3.0151,-3.0222,-3.0228,-3.014,-3.014,-3.0139,0,-3.0402,-3.0383,-3.0384,-3.0375,-3.034,-3.0342,-3.0327,-3.0304,-3.0297,-3.0282,-3.0277,-3.0263,-3.0255,-3.0245,-3.0215,-3.0198,-3.0217,-3.0187,-3.0204,-3.0205,-3.0207,-3.0207,-3.0278,-3.0208,-3.0208,-3.0207,-3.0207,0,-3.0446,-3.045,-3.0408,-3.0408,-3.0413,-3.0379,-3.0385,-3.0367,-3.0348,-3.0345,-3.0312,-3.031,-3.0271,-3.0265,-3.0242,-3.0245,-3.0242,-3.023,-3.0223,-3.0231,-3.0233,-3.0225,-3.0221,-3.0209,-3.0209,-3.0208,-3.0208,0,-3.0505,-3.0476,-3.0475,-3.0443,-3.0436,-3.0441,-3.0414,-3.0413,-3.0393,-3.039,-3.0387,-3.0354,-3.0346,-3.0316,-3.03,-3.0285,-3.0294,-3.0283,-3.0301,-3.0297,-3.0316,-3.0314,-3.0381,-3.0389,-3.0316,-3.0317,-3.0317,0,-3.0533,-3.0536,-3.0506,-3.0502,-3.0489,-3.0483,-3.0476,-3.0444,-3.0437,-3.0415,-3.0418,-3.0407,-3.0397,-3.0386,-3.0361,-3.0349,-3.0336,-3.0361,-3.0334,-3.0343,-3.0335,-3.0335,-3.0335,-3.0366,-3.0367,-3.0368,-3.0368,0,-3.0588,-3.0575,-3.0565,-3.0552,-3.0545,-3.0533,-3.0518,-3.0517,-3.0482,-3.0477,-3.0468,-3.0461,-3.0446,-3.0436,-3.0421,-3.0407,-3.0382,-3.0378,-3.0381,-3.0388,-3.0398,-3.0392,-3.0315,-3.0375,-3.0375,-3.0374,-3.0374,-3.0373,-3.0631,-3.0633,-3.0612,-3.0604,-3.059,-3.0579,-3.0578,-3.0558,-3.055,-3.0536,-3.0518,-3.0512,-3.0494,-3.0471,-3.0459,-3.0455,-3.0441,-3.0446,-3.0447,-3.0448,-3.0452,-3.0402,-3.0452,-3.0452,-3.0452,-3.0452,-3.0451,0,-3.0683,-3.0669,-3.0662,-3.0644,-3.0638,-3.0617,-3.0602,-3.0598,-3.0593,-3.0578,-3.0569,-3.0561,-3.0552,-3.0528,-3.0517,-3.0518,-3.0507,-3.0517,-3.0515,-3.0512,-3.0465,-3.0463,-3.0526,-3.0526,-3.0526,-3.0526,-3.0526,-3.0526,-3.0709,-3.071,-3.0695,-3.0691,-3.0677,-3.0671,-3.0664,-3.0654,-3.0642,-3.0634,-3.0627,-3.0612,-3.0594,-3.0582,-3.0574,-3.0567,-3.0564,-3.0577,-3.0567,-3.0523,-3.0515,-3.0508,-3.0506,-3.0577,-3.0577,-3.0614,-3.0614,-3.0614]},{"header":{"parameterUnit":"m.s-1","parameterCategory":1,"la1":30.2991,"la2":30.254,"lo1":-89.0895,"lo2":-89.0444,"dy":0.0017,"dx":0.0017,"nx":28,"ny":28,"refTime":"2024-06-22T03:00:00:Z","depth":0,"parameterNumber":3,"parameterNumberName":"V-component_of_WINDS"},"data":[0,0,0,0,0,0,0,0,0,0,0,0,0,0,0,0,0,0,0,0,0,0,0,0,0,0,0,0,0,0,0,0,0,0,0,0,0,0,0,0,0,0,0,0,0,0,0,0,0,0,0,0,0,0,0,0,0,0,2.5271,2.5272,0,2.53,2.53,2.5301,2.5364,2.5365,2.5367,2.5368,2.5392,2.5392,2.5391,0,0,0,0,0,0,0,0,0,0,0,0,0,2.5267,2.5267,2.5271,2.5272,2.5272,2.53,2.53,2.5301,2.5364,2.5366,2.5367,2.5369,2.5393,2.5392,2.5391,0,0,0,0,0,0,0,0,0,0,0,0,0,2.5279,2.5267,2.5271,2.5307,2.5311,2.53,2.53,2.5301,2.5364,2.5366,2.5368,2.5369,2.5393,2.5392,2.5391,2.5346,0,0,2.5388,2.5388,0,0,0,0,0,0,0,0,2.5279,2.5279,2.5301,2.5305,2.5308,2.5331,2.5308,2.5316,2.5363,2.5343,2.5368,2.537,2.537,2.5371,2.5372,2.5348,2.5349,2.5388,2.5388,2.5387,2.5387,0,0,0,0,0,0,0,2.5278,2.5279,2.5283,2.5302,2.5306,2.532,2.5324,2.531,2.5345,2.5345,2.535,2.5353,2.5372,2.5373,2.5373,2.5349,2.5388,2.5388,2.5387,2.5387,2.5289,2.5287,0,0,0,0,0,0,2.5272,2.5277,2.5282,2.5283,2.5298,2.5319,2.5323,2.5321,2.5345,2.5351,2.5351,2.5356,2.5373,2.5374,2.5374,2.5323,2.5387,2.5387,2.5386,2.5291,2.5289,2.5287,0,0,0,0,0,0,2.5272,2.5272,2.528,2.5282,2.5284,2.5317,2.5314,2.5321,2.5322,2.535,2.5356,2.5345,2.5375,2.5375,2.5353,2.5325,2.5386,2.5385,2.5294,2.5291,2.5288,2.5221,0,0,0,0,0,0,2.5272,2.5272,2.5256,2.5281,2.5284,2.526,2.5313,2.532,2.5321,2.5327,2.5346,2.5351,2.5376,2.5354,2.5352,2.5325,2.5385,2.5297,2.5292,2.5289,2.5225,2.5216,2.5207,0,0,0,0,0,2.5271,2.5234,2.5255,2.5255,2.5265,2.5258,2.526,2.5291,2.5318,2.5302,2.532,2.535,2.5329,2.5351,2.535,2.5321,2.5298,2.5294,2.5289,2.5229,2.5217,2.5207,0,0,0,0,0,0,2.5203,2.5238,2.5261,2.5232,2.5242,2.5269,2.5249,2.5277,2.5278,2.5284,2.5321,2.5325,2.5297,2.5308,2.5332,2.528,2.5318,2.5313,2.5274,2.5262,2.5253,2.5251,2.5384,0,0,0,0,0,2.5185,2.5178,2.5209,2.518,2.5184,2.5216,2.5214,2.5238,2.5249,2.5253,2.5269,2.5278,2.5273,2.5268,2.5266,2.5228,2.5232,2.5208,2.5199,2.5191,2.5185,2.5166,2.5155,2.5271,2.5271,2.5272,0,0,2.5146,2.5165,2.5158,2.5167,2.5177,2.5168,2.5219,2.5207,2.52,2.525,2.5231,2.5243,2.5255,2.5225,2.5212,2.5232,2.5155,2.5185,2.5179,2.5177,2.516,2.5149,2.5139,2.5268,2.5269,2.5269,0,0,2.5071,2.5085,2.5063,2.5073,2.5089,2.5111,2.5105,2.5129,2.514,2.5121,2.5159,2.5151,2.5142,2.5149,2.5151,2.5081,2.5108,2.5079,2.503,2.501,2.5001,2.4993,2.4967,2.4957,2.5073,2.5073,2.5073,0,2.5021,2.501,2.5047,2.5033,2.5035,2.5084,2.506,2.5068,2.5081,2.5081,2.5104,2.5094,2.5105,2.5077,2.506,2.5061,2.5055,2.5075,2.5,2.4992,2.4985,2.496,2.495,2.5069,2.507,2.507,2.5071,0,2.4947,2.4939,2.4918,2.4932,2.4933,2.4914,2.4947,2.4943,2.4967,2.4985,2.4966,2.4981,2.4982,2.4978,2.5,2.4953,2.4965,2.4993,2.5033,2.4969,2.4947,2.4938,2.5064,2.5065,2.5066,2.5067,0,0,2.4827,2.4864,2.4856,2.4863,2.4885,2.4878,2.4862,2.4865,2.486,2.4868,2.4854,2.4846,2.4873,2.4875,2.4899,2.4882,2.4824,2.4913,2.4914,2.4894,2.4772,2.4749,2.4738,2.4844,2.4842,2.4841,2.4771,0,2.4756,2.4731,2.4765,2.4732,2.4724,2.477,2.4756,2.4767,2.4785,2.478,2.4799,2.4792,2.4829,2.4831,2.4816,2.4834,2.48,2.484,2.4829,2.4828,2.4823,2.4726,2.4702,2.4635,2.4762,2.4761,2.476,0,2.467,2.4676,2.4642,2.4667,2.4665,2.4652,2.4657,2.4653,2.4666,2.468,2.4684,2.4713,2.4698,2.4738,2.4716,2.4742,2.474,2.4749,2.4747,2.4745,2.4789,2.472,2.4614,2.4603,2.4746,2.4747,2.4748,0,2.4584,2.4584,2.4564,2.4569,2.4598,2.4587,2.4598,2.4614,2.4614,2.4619,2.4619,2.4621,2.4621,2.4622,2.4651,2.4677,2.4625,2.4667,2.4634,2.4633,2.4619,2.4619,2.4509,2.462,2.4621,2.4621,2.4621,0,2.45,2.4478,2.4526,2.4514,2.4489,2.4528,2.4503,2.4519,2.4533,2.4523,2.4563,2.4553,2.4593,2.4586,2.4609,2.4587,2.4587,2.4596,2.4602,2.4592,2.459,2.4589,2.4594,2.4618,2.4619,2.4619,2.462,0,2.44,2.4432,2.4413,2.4443,2.445,2.443,2.4455,2.4444,2.4466,2.4453,2.4452,2.4484,2.4479,2.4509,2.4508,2.4523,2.4489,2.4504,2.4485,2.4489,2.4454,2.4456,2.4338,2.4324,2.4445,2.4444,2.4443,0,2.4344,2.4328,2.4356,2.4354,2.4364,2.4359,2.4359,2.4397,2.4396,2.4411,2.4398,2.4396,2.4397,2.4386,2.4409,2.4408,2.4422,2.4381,2.4422,2.4412,2.442,2.442,2.4418,2.4371,2.437,2.4369,2.4368,0,2.4239,2.4257,2.4257,2.4263,2.4263,2.4269,2.4277,2.4273,2.4314,2.431,2.4306,2.4307,2.4308,2.4305,2.431,2.432,2.435,2.4355,2.4347,2.4335,2.4325,2.4329,2.446,2.4357,2.4358,2.4359,2.4359,2.436,2.4158,2.4146,2.4165,2.4164,2.4175,2.4182,2.4174,2.4195,2.4193,2.4198,2.422,2.4212,2.4226,2.4236,2.4243,2.4237,2.4256,2.4245,2.4242,2.4238,2.4231,2.4327,2.4238,2.4238,2.4238,2.4239,2.4239,0,2.4055,2.407,2.4069,2.4081,2.408,2.4111,2.4123,2.4119,2.4112,2.4124,2.4125,2.412,2.4118,2.4141,2.4142,2.4132,2.4146,2.4131,2.4131,2.4133,2.4214,2.4221,2.412,2.412,2.412,2.412,2.412,2.412,2.4002,2.3983,2.4002,2.3989,2.4004,2.3998,2.4001,2.4008,2.4018,2.4011,2.4011,2.4027,2.4043,2.4046,2.4045,2.4052,2.4049,2.4029,2.404,2.4116,2.4127,2.4138,2.4144,2.4029,2.4029,2.3959,2.3959,2.3958]}]]